Wind_Speed
9 5 6 3 1 1 2 3 3 2 2 3 4 4 5 5 6 6 4 4 4 3 2 1 1 4 1 3 0 2 5 4 5 6 8 9 11 12 13 9 11 9 8 10 10
9 8 9 5 6 5 5 5 5 4 4 4 5 5 5 5 6 5 5 5 6 7 4 3 5 2 10 4 5 6 1 1 7 10 8 11 12 14 12 5 7 9 6 8 9
10 11 10 5 7 9 8 7 6 6 6 6 7 7 7 7 6 6 5 5 6 7 5 5 7 4 7 5 7 7 4 6 7 8 9 11 12 11 10 5 4 10 4 11 8
11 11 11 6 7 9 11 10 9 8 7 6 5 5 6 8 8 7 7 5 6 8 8 7 5 9 8 8 5 4 8 9 13 13 13 10 11 10 12 9 7 10 14 12 7
11 10 10 6 6 5 8 10 9 7 5 4 4 5 6 7 7 8 7 7 7 7 8 6 7 8 9 3 3 5 9 13 13 11 10 10 6 8 9 7 6 7 10 7 6
9 9 9 5 5 2 4 6 6 6 5 4 3 5 3 4 6 4 5 5 5 3 3 5 7 6 7 4 4 5 8 10 10 14 15 12 10 8 7 5 1 6 7 6 6
8 8 8 3 2 1 1 3 5 5 3 2 2 2 1 3 3 2 3 3 3 3 5 6 5 7 6 7 3 7 7 5 11 15 18 15 9 5 5 6 11 5 4 4 6
8 8 6 1 1 1 1 2 3 3 3 3 3 2 2 2 1 2 2 3 3 4 5 5 5 8 3 3 6 8 3 6 10 14 22 23 19 18 16 12 11 9 6 1 3
8 8 6 1 1 1 0 1 2 1 2 2 3 2 0 2 2 2 2 3 3 3 5 6 6 6 5 6 6 5 6 5 16 17 21 21 27 21 14 12 15 16 9 5 5
8 8 6 2 1 1 1 0 1 1 0 1 1 2 2 3 3 3 2 2 4 3 4 5 4 1 5 6 13 12 10 11 16 23 21 17 21 30 20 17 12 13 10 7 7
8 7 7 3 2 2 2 2 2 3 1 2 2 2 3 2 5 4 2 2 2 2 4 4 1 5 10 13 17 13 15 14 14 18 21 17 20 23 23 20 12 4 12 6 10
9 7 7 3 5 4 4 2 2 2 3 3 1 2 3 1 4 3 3 1 2 3 2 2 5 10 6 7 10 9 13 19 23 23 21 21 19 18 16 21 13 2 6 5 7
9 7 7 5 6 7 6 4 2 2 3 3 1 2 1 2 3 2 2 4 2 1 2 4 3 8 7 8 8 5 9 10 17 17 20 19 15 11 14 15 18 9 5 11 7
11 8 7 7 7 10 9 5 2 2 4 4 1 1 1 2 2 0 2 2 3 1 4 5 3 2 3 1 2 9 6 5 9 10 15 15 10 8 11 12 7 11 5 2 7
12 9 8 9 8 10 11 7 3 2 7 3 3 1 1 2 3 3 1 2 2 2 2 2 4 9 9 7 5 1 11 6 5 6 16 22 17 6 9 13 7 5 7 4 4
13 10 9 9 9 9 7 9 6 8 7 5 4 1 3 0 2 1 2 2 3 4 1 4 6 4 10 13 10 3 8 12 3 3 6 20 19 12 15 13 15 13 7 10 8
13 10 9 10 8 9 8 8 12 13 9 12 3 3 2 1 3 2 2 4 6 3 2 3 3 6 8 12 12 6 9 10 11 5 6 11 13 12 17 26 25 10 12 8 6
12 9 10 11 9 10 12 14 14 13 13 11 7 1 2 1 2 3 3 4 1 1 1 10 5 5 2 6 11 6 4 12 18 17 4 8 13 18 16 17 17 13 13 9 4
10 11 11 12 11 12 16 20 17 17 12 9 1 4 8 7 4 1 6 7 6 8 10 5 5 5 3 4 7 14 9 7 10 10 9 9 13 13 17 15 14 11 17 14 7
10 11 11 14 13 15 19 25 20 16 14 12 12 9 8 7 6 6 7 10 4 7 12 9 10 10 6 6 3 5 9 11 15 16 5 4 11 15 20 22 11 5 7 14 9
9 12 12 13 15 17 17 24 22 20 17 17 19 16 16 12 13 11 13 12 18 12 15 11 18 8 15 14 10 9 13 16 19 19 18 10 7 14 18 18 21 17 17 10 12
9 13 12 15 16 21 26 30 24 22 17 23 23 21 20 20 20 17 18 20 19 19 21 18 22 22 15 14 20 21 18 21 23 22 24 25 20 18 16 20 28 23 21 24 14
11 13 14 15 16 22 25 25 22 21 19 20 21 23 19 20 22 23 24 28 24 25 26 27 27 27 26 21 23 25 26 25 30 30 28 29 29 21 23 22 27 28 27 17 18
10 12 14 17 19 19 17 20 21 18 15 15 16 14 16 16 18 18 20 27 30 27 25 29 34 32 28 31 32 27 25 30 35 36 37 34 28 26 28 25 31 26 20 19 19
12 13 14 14 13 16 16 17 17 14 13 11 12 15 15 15 14 15 17 19 25 26 32 29 27 28 28 27 32 32 26 35 42 40 43 42 39 36 40 34 37 36 31 29 29
9 13 14 16 19 19 18 19 12 10 11 11 13 17 16 17 18 18 22 24 25 27 30 34 33 34 32 31 33 32 32 31 41 45 46 46 49 47 38 42 45 38 26 31 31
5 10 15 15 17 15 13 12 13 16 15 14 14 14 17 19 20 21 23 24 25 27 31 34 37 38 40 37 40 39 37 35 36 39 49 55 54 53 54 48 44 39 39 31 33
Wind_Direction
21 9 347 318 279 196 163 161 167 173 185 214 231 240 247 248 240 240 238 240 242 234 248 287 354 67 157 293 105 103 291 338 1 358 324 319 313 299 306 313 323 323 10 7 352
356 350 340 304 261 248 235 229 228 228 231 242 251 255 259 259 259 261 256 254 260 262 245 247 252 240 307 58 103 100 114 350 351 346 339 310 316 306 306 330 314 325 350 354 359
335 334 333 301 276 254 243 243 246 248 250 253 256 258 260 263 262 263 255 261 261 275 274 269 275 293 276 252 139 111 63 19 340 338 337 317 302 298 286 271 251 320 333 349 4
325 325 327 309 291 256 243 243 251 253 259 260 254 261 270 268 262 260 250 249 264 281 296 295 275 259 262 220 126 93 49 16 9 353 342 329 304 305 278 310 310 299 269 333 345
318 321 327 318 312 264 241 239 246 249 241 233 258 280 280 266 262 250 244 266 264 283 305 311 293 288 282 266 201 79 64 43 13 353 351 353 339 334 298 307 339 313 294 319 319
317 324 328 317 334 300 234 226 218 210 211 227 263 295 275 233 258 249 238 250 269 294 330 335 325 337 239 216 137 126 93 65 50 27 24 7 11 350 307 301 344 251 290 300 298
330 333 328 301 321 318 193 188 192 197 212 230 271 303 206 208 233 234 230 223 231 286 315 331 339 287 246 218 157 53 38 79 64 25 19 12 15 356 283 273 267 219 265 278 322
339 339 331 320 310 278 226 199 204 212 222 228 248 297 157 207 212 212 209 234 257 299 309 296 298 266 288 32 111 99 153 126 18 27 10 9 6 344 297 245 226 208 241 259 307
338 338 338 334 39 11 289 226 213 203 212 232 247 262 159 187 211 206 232 226 258 266 284 304 270 266 145 168 27 165 101 66 27 19 11 10 12 352 338 266 203 201 208 200 177
334 330 339 259 41 1 353 176 140 122 48 10 273 244 233 231 193 219 248 244 252 264 292 291 272 335 107 161 98 63 46 24 17 359 3 353 10 20 20 352 292 248 214 202 164
332 324 325 262 231 249 275 264 225 204 209 331 339 306 252 237 235 209 211 232 236 264 279 310 214 166 85 118 132 78 29 29 13 336 349 354 10 17 7 0 346 257 235 246 182
326 318 306 288 223 227 245 276 359 260 226 201 293 319 281 176 265 216 223 210 216 230 280 308 175 144 135 94 115 85 44 22 342 323 331 7 14 21 17 33 17 36 241 249 232
324 307 291 277 227 225 244 267 331 330 274 197 238 87 196 76 230 165 207 197 196 225 236 182 177 186 167 143 135 90 43 22 325 324 346 355 19 34 80 37 26 22 192 238 233
315 297 284 267 237 218 230 239 293 330 221 152 220 138 125 95 223 184 172 185 177 190 223 241 256 327 86 96 85 158 180 282 292 330 17 18 41 73 9 42 51 19 58 185 222
306 292 270 258 240 220 224 218 255 138 159 129 242 225 175 43 6 333 182 135 109 129 256 108 83 83 59 24 321 36 241 104 298 32 31 19 24 352 13 357 354 57 80 133 136
299 283 255 247 233 211 205 220 202 204 147 217 209 247 222 293 329 263 213 94 75 56 12 214 184 115 65 30 6 271 183 163 224 41 24 9 0 9 356 356 3 346 63 127 138
292 269 242 238 222 203 175 195 212 215 189 171 147 147 252 269 337 308 82 56 58 69 131 107 79 45 32 36 10 323 213 199 216 269 360 1 1 359 10 12 0 7 11 21 54
282 249 232 226 210 191 166 183 214 228 219 201 158 125 230 282 220 186 171 103 131 103 48 213 224 255 91 25 37 8 316 265 252 271 281 315 318 350 13 41 37 37 10 6 16
268 239 226 216 206 187 177 193 224 230 245 224 238 215 185 193 342 14 83 61 44 23 5 332 288 284 41 36 36 51 30 360 333 313 280 314 307 335 353 354 0 322 349 342 325
255 231 224 213 200 191 187 200 220 233 246 227 231 249 259 253 256 262 319 345 345 330 304 320 307 269 258 296 337 39 347 339 345 330 315 331 328 322 320 321 340 352 299 334 323
246 225 215 207 197 194 198 201 216 221 252 227 227 235 245 230 278 255 261 234 276 273 278 288 288 196 250 285 285 279 283 298 299 300 297 270 235 318 315 301 312 317 319 312 323
229 224 212 198 195 194 191 208 219 225 228 225 227 233 237 230 248 247 237 250 261 262 265 275 279 288 276 259 267 262 255 265 279 281 284 288 284 293 299 302 306 305 307 320 321
220 222 210 206 204 210 217 224 224 232 228 222 229 235 253 249 244 255 264 266 270 276 265 270 281 288 292 287 266 269 251 256 267 269 266 265 274 279 281 286 288 284 302 294 301
219 223 218 214 209 210 223 238 244 246 244 234 240 241 238 238 249 250 251 263 270 280 281 276 280 285 289 286 278 257 254 245 252 261 265 265 269 259 266 264 285 271 281 284 294
216 198 210 221 220 228 226 233 239 234 231 249 250 248 252 254 259 266 261 260 265 268 273 274 270 270 274 276 277 278 267 253 241 250 260 262 261 260 248 253 260 271 279 287 295
227 214 215 210 214 221 222 234 243 254 252 226 239 260 254 259 263 263 259 259 258 265 270 276 276 277 274 272 270 268 270 260 254 252 252 256 260 261 259 241 254 258 271 281 285
236 223 225 222 232 240 248 248 247 253 247 254 258 261 275 271 267 268 271 271 270 271 271 277 279 281 282 280 275 270 265 263 260 254 254 253 254 261 267 261 251 253 259 265 270
Height
5902 5901 5900 5899 5899 5899 5899 5899 5899 5899 5899 5899 5900 5900 5900 5901 5901 5902 5903 5903 5902 5903 5903 5904 5904 5903 5902 5902 5903 5902 5904 5902 5902 5902 5902 5902 5901 5900 5899 5899 5899 5898 5898 5897 5895
5901 5900 5899 5898 5898 5898 5898 5898 5898 5898 5899 5899 5899 5900 5900 5900 5901 5901 5903 5902 5901 5901 5903 5903 5904 5904 5904 5903 5903 5902 5903 5901 5901 5900 5900 5899 5897 5895 5896 5898 5898 5894 5895 5896 5896
5900 5899 5897 5897 5896 5896 5896 5897 5897 5897 5898 5898 5898 5899 5899 5899 5900 5900 5901 5901 5900 5899 5901 5902 5901 5902 5903 5904 5901 5901 5901 5900 5900 5899 5898 5897 5895 5894 5893 5898 5895 5895 5895 5893 5892
5898 5897 5896 5895 5894 5893 5894 5895 5895 5896 5896 5896 5897 5897 5897 5898 5900 5899 5900 5900 5899 5898 5899 5901 5902 5901 5902 5902 5901 5901 5901 5901 5900 5898 5896 5895 5894 5893 5893 5895 5894 5895 5895 5895 5891
5896 5895 5894 5892 5891 5891 5891 5893 5893 5894 5894 5895 5896 5896 5896 5897 5897 5897 5898 5899 5898 5898 5898 5898 5897 5897 5898 5898 5899 5899 5900 5900 5900 5898 5895 5894 5893 5893 5892 5893 5894 5893 5892 5894 5893
5894 5893 5892 5891 5890 5890 5890 5891 5892 5893 5894 5895 5895 5895 5895 5895 5895 5896 5897 5898 5897 5897 5898 5897 5897 5896 5896 5896 5896 5897 5898 5899 5898 5898 5894 5892 5891 5890 5889 5889 5890 5889 5888 5892 5893
5892 5891 5890 5890 5889 5889 5889 5890 5891 5892 5893 5894 5894 5894 5894 5894 5895 5895 5897 5897 5897 5897 5897 5896 5896 5895 5893 5892 5897 5898 5899 5899 5897 5896 5895 5891 5892 5889 5886 5885 5885 5887 5888 5890 5889
5891 5890 5889 5889 5889 5889 5889 5890 5891 5892 5893 5893 5893 5893 5893 5893 5894 5895 5896 5897 5897 5896 5895 5895 5893 5895 5893 5896 5895 5896 5898 5897 5897 5895 5894 5893 5892 5890 5886 5882 5881 5882 5884 5886 5887
5890 5889 5888 5888 5888 5888 5889 5889 5891 5892 5892 5893 5893 5893 5894 5894 5894 5895 5895 5896 5896 5896 5895 5893 5894 5893 5893 5895 5897 5896 5896 5894 5894 5895 5894 5894 5892 5885 5880 5882 5878 5877 5879 5883 5885
5889 5888 5887 5887 5887 5888 5888 5889 5890 5892 5892 5893 5892 5893 5893 5893 5893 5894 5894 5894 5895 5894 5894 5893 5893 5892 5894 5898 5898 5897 5897 5894 5891 5894 5893 5894 5891 5884 5883 5885 5883 5883 5878 5882 5883
5888 5887 5886 5886 5886 5887 5888 5888 5891 5891 5890 5893 5893 5892 5891 5892 5893 5893 5893 5894 5893 5893 5893 5892 5892 5892 5894 5895 5894 5896 5895 5894 5891 5893 5894 5892 5890 5886 5883 5882 5882 5880 5880 5882 5884
5886 5885 5884 5884 5885 5885 5886 5888 5889 5889 5889 5890 5891 5892 5891 5891 5892 5892 5893 5893 5893 5893 5892 5893 5892 5893 5893 5894 5894 5893 5893 5892 5889 5892 5891 5891 5890 5887 5884 5883 5881 5878 5879 5882 5886
5885 5883 5883 5882 5882 5883 5885 5887 5888 5888 5889 5889 5890 5890 5891 5891 5892 5891 5892 5892 5892 5892 5891 5892 5893 5894 5893 5892 5893 5894 5893 5894 5894 5892 5892 5890 5889 5887 5884 5883 5881 5880 5878 5880 5884
5882 5881 5880 5880 5882 5881 5883 5885 5887 5887 5888 5889 5889 5890 5891 5892 5891 5891 5890 5892 5891 5891 5892 5892 5891 5891 5889 5890 5891 5892 5895 5895 5896 5894 5893 5892 5890 5887 5885 5883 5882 5878 5875 5875 5879
5880 5878 5878 5878 5878 5879 5882 5884 5886 5887 5887 5891 5890 5889 5890 5892 5892 5890 5890 5891 5891 5891 5893 5893 5892 5890 5890 5890 5890 5894 5894 5895 5893 5894 5894 5892 5890 5890 5887 5884 5879 5876 5876 5874 5877
5876 5875 5875 5875 5875 5877 5880 5883 5885 5888 5887 5888 5889 5888 5890 5891 5892 5891 5890 5890 5890 5890 5892 5891 5890 5889 5889 5889 5890 5890 5891 5891 5891 5893 5893 5890 5889 5889 5888 5884 5883 5883 5879 5876 5877
5872 5872 5872 5872 5874 5875 5878 5880 5882 5882 5885 5887 5887 5888 5888 5889 5891 5890 5889 5889 5890 5891 5891 5891 5890 5889 5889 5890 5889 5888 5890 5889 5890 5891 5888 5887 5888 5887 5888 5885 5882 5881 5883 5882 5883
5868 5869 5869 5869 5871 5873 5876 5878 5878 5879 5881 5884 5885 5886 5887 5887 5888 5888 5888 5888 5889 5890 5891 5890 5890 5889 5888 5889 5889 5887 5888 5889 5889 5888 5888 5886 5884 5885 5884 5885 5885 5885 5883 5882 5881
5864 5865 5866 5867 5869 5871 5874 5876 5876 5876 5877 5879 5882 5882 5883 5883 5883 5883 5885 5886 5885 5886 5889 5889 5889 5888 5886 5886 5888 5888 5888 5888 5887 5886 5886 5885 5883 5883 5881 5883 5883 5884 5883 5881 5879
5860 5861 5862 5864 5866 5870 5872 5872 5874 5877 5876 5876 5877 5879 5880 5879 5879 5879 5881 5883 5883 5883 5884 5886 5886 5887 5886 5885 5886 5885 5887 5887 5885 5884 5883 5884 5883 5880 5879 5879 5881 5881 5881 5881 5878
5857 5857 5859 5861 5864 5867 5870 5869 5871 5874 5876 5876 5875 5877 5877 5878 5877 5877 5879 5881 5879 5879 5879 5882 5882 5886 5885 5884 5883 5882 5882 5882 5882 5881 5879 5878 5879 5878 5878 5876 5875 5875 5876 5878 5876
5854 5853 5855 5858 5861 5862 5862 5861 5864 5867 5870 5871 5872 5873 5874 5876 5877 5878 5878 5875 5876 5878 5877 5877 5876 5877 5881 5884 5882 5879 5879 5879 5876 5877 5875 5874 5875 5873 5873 5872 5870 5870 5869 5869 5873
5851 5851 5853 5855 5856 5858 5859 5860 5862 5864 5864 5867 5868 5868 5870 5872 5875 5875 5874 5873 5875 5875 5874 5874 5874 5874 5874 5878 5878 5876 5876 5875 5872 5870 5869 5868 5869 5870 5868 5867 5866 5864 5865 5865 5864
5849 5850 5852 5853 5854 5855 5858 5858 5858 5860 5864 5865 5865 5867 5868 5869 5869 5871 5872 5870 5869 5870 5871 5871 5870 5869 5871 5868 5868 5870 5870 5871 5867 5865 5863 5863 5862 5862 5859 5861 5858 5863 5861 5861 5861
5845 5846 5847 5851 5853 5852 5853 5854 5856 5857 5859 5861 5862 5862 5865 5866 5866 5867 5869 5869 5866 5865 5861 5862 5863 5863 5864 5862 5859 5858 5863 5861 5857 5857 5854 5855 5853 5853 5853 5853 5853 5853 5852 5852 5853
5841 5843 5845 5845 5845 5848 5850 5851 5853 5854 5855 5856 5857 5855 5858 5860 5861 5860 5859 5859 5860 5859 5856 5852 5852 5851 5853 5853 5850 5851 5850 5847 5850 5848 5846 5844 5841 5842 5843 5845 5846 5847 5849 5850 5850
5839 5839 5840 5842 5844 5846 5848 5849 5850 5849 5851 5851 5851 5852 5851 5852 5852 5853 5852 5851 5851 5850 5847 5845 5842 5840 5839 5841 5837 5839 5839 5839 5836 5834 5833 5833 5830 5832 5833 5836 5839 5840 5842 5845 5846